Location: Csohesd
(46.2500°N, 22.6167°E)
Time: 04:27:57
(UTC+00:00)

SWARM A - Pass Details

Date: 21 October 2021
Orbit: 424 x 429 km, 87.4° (Epoch: 30 November)

Event Time Altitude Azimuth Distance (km) Brightness Sun altitude
Rises 17:23:10 0° 182° (S) 2,388 8.0 -19.8°
Reaches altitude 10° 17:25:11 10° 183° (S) 1,528 7.0 -20.2°
Maximum altitude 17:28:29 83° 270° (W) 441 4.2 -20.7°
Drops below altitude 10° 17:31:50 10° 0° (N) 1,544 7.1 -21.3°
Sets 17:33:53 0° 2° (N) 2,417 8.1 -21.7°
